Time,TemperatureF,DewpointF,PressureIn,WindDirection,WindDirectionDegrees,WindSpeedMPH,WindSpeedGustMPH,Humidity,HourlyPrecipIn,Conditions,Clouds,dailyrainin,SoftwareType,DateUTC
2013-01-09 00:02:00,11.0,4.0,29.93,NW,311,3.0,3.0,73,0.00,,,0.00,,2013-01-09 07:02:00,
2013-01-09 00:12:00,11.0,4.0,29.93,NW,311,3.0,3.0,73,0.00,,,0.00,,2013-01-09 07:12:00,
2013-01-09 00:22:00,12.0,6.0,29.93,North,350,3.0,5.0,76,0.00,,,0.00,,2013-01-09 07:22:00,
2013-01-09 00:32:00,11.0,5.0,29.93,North,350,2.0,5.0,76,0.00,,,0.00,,2013-01-09 07:32:00,
2013-01-09 00:42:00,11.0,5.0,29.93,North,350,2.0,5.0,76,0.00,,,0.00,,2013-01-09 07:42:00,
2013-01-09 00:52:00,10.0,4.0,29.93,NNE,15,5.0,7.0,75,0.00,,,0.00,,2013-01-09 07:52:00,
2013-01-09 01:02:00,9.0,3.0,29.93,NE,53,5.0,8.0,76,0.00,,,0.00,,2013-01-09 08:02:00,
2013-01-09 01:12:00,9.0,3.0,29.93,NE,53,5.0,8.0,76,0.00,,,0.00,,2013-01-09 08:12:00,
2013-01-09 01:22:00,10.0,5.0,29.93,NE,47,3.0,12.0,78,0.00,,,0.00,,2013-01-09 08:22:00,
2013-01-09 01:32:00,11.0,6.0,29.93,NE,46,3.0,5.0,79,0.00,,,0.00,,2013-01-09 08:32:00,
2013-01-09 01:42:00,11.0,6.0,29.93,NE,46,3.0,5.0,79,0.00,,,0.00,,2013-01-09 08:42:00,
2013-01-09 01:53:00,14.0,9.0,29.93,ENE,64,5.0,10.0,81,0.00,,,0.00,,2013-01-09 08:53:00,
2013-01-09 02:02:00,16.0,10.0,29.92,ENE,63,6.0,7.0,78,0.00,,,0.00,,2013-01-09 09:02:00,
2013-01-09 02:12:00,16.0,10.0,29.92,ENE,63,6.0,7.0,78,0.00,,,0.00,,2013-01-09 09:12:00,
2013-01-09 02:22:00,19.0,14.0,29.92,East,88,7.0,9.0,80,0.00,,,0.00,,2013-01-09 09:22:00,
2013-01-09 02:32:00,20.0,15.0,29.91,ENE,72,6.0,9.0,79,0.00,,,0.00,,2013-01-09 09:32:00,
2013-01-09 02:42:00,20.0,15.0,29.91,ENE,72,6.0,9.0,79,0.00,,,0.00,,2013-01-09 09:42:00,
2013-01-09 02:53:00,20.0,14.0,29.91,ENE,74,10.0,12.0,77,0.00,,,0.00,,2013-01-09 09:53:00,
2013-01-09 03:02:00,20.0,13.0,29.91,ENE,64,10.0,12.0,75,0.00,,,0.00,,2013-01-09 10:02:00,
2013-01-09 03:12:00,20.0,13.0,29.91,ENE,64,10.0,12.0,75,0.00,,,0.00,,2013-01-09 10:12:00,
2013-01-09 03:22:00,20.0,13.0,29.90,ENE,60,12.0,14.0,74,0.00,,,0.00,,2013-01-09 10:22:00,
2013-01-09 03:32:00,21.0,14.0,29.88,ENE,59,13.0,14.0,74,0.00,,,0.00,,2013-01-09 10:32:00,
2013-01-09 03:42:00,21.0,14.0,29.88,ENE,59,13.0,14.0,74,0.00,,,0.00,,2013-01-09 10:42:00,
2013-01-09 03:52:00,21.0,14.0,29.87,ENE,69,12.0,14.0,74,0.00,,,0.00,,2013-01-09 10:52:00,
2013-01-09 04:02:00,22.0,15.0,29.86,East,82,11.0,15.0,73,0.00,,,0.00,,2013-01-09 11:02:00,
2013-01-09 04:12:00,22.0,15.0,29.86,East,82,11.0,15.0,73,0.00,,,0.00,,2013-01-09 11:12:00,
2013-01-09 04:22:00,23.0,15.0,29.85,East,79,14.0,17.0,72,0.00,,,0.00,,2013-01-09 11:22:00,
2013-01-09 04:32:00,23.0,16.0,29.85,East,84,13.0,16.0,73,0.00,,,0.00,,2013-01-09 11:32:00,
2013-01-09 04:42:00,23.0,16.0,29.85,East,84,13.0,16.0,73,0.00,,,0.00,,2013-01-09 11:42:00,
2013-01-09 04:53:00,23.0,16.0,29.83,ENE,78,12.0,15.0,74,0.00,,,0.00,,2013-01-09 11:53:00,
2013-01-09 05:03:00,23.0,16.0,29.83,ENE,71,13.0,15.0,74,0.00,,,0.00,,2013-01-09 12:03:00,
2013-01-09 05:12:00,23.0,16.0,29.83,ENE,71,13.0,15.0,74,0.00,,,0.00,,2013-01-09 12:12:00,
2013-01-09 05:23:00,25.0,17.0,29.81,East,81,13.0,17.0,72,0.00,,,0.00,,2013-01-09 12:23:00,
2013-01-09 05:33:00,25.0,17.0,29.81,ENE,73,12.0,15.0,71,0.00,,,0.00,,2013-01-09 12:33:00,
2013-01-09 05:43:00,25.0,17.0,29.81,ENE,73,12.0,15.0,71,0.00,,,0.00,,2013-01-09 12:43:00,
2013-01-09 05:53:00,25.0,17.0,29.80,ENE,74,10.0,14.0,72,0.00,,,0.00,,2013-01-09 12:53:00,
2013-01-09 06:02:00,25.0,17.0,29.80,East,81,11.0,14.0,72,0.00,,,0.00,,2013-01-09 13:02:00,
2013-01-09 06:12:00,25.0,17.0,29.80,East,81,11.0,14.0,72,0.00,,,0.00,,2013-01-09 13:12:00,
2013-01-09 06:23:00,25.0,17.0,29.80,East,85,12.0,15.0,71,0.00,,,0.00,,2013-01-09 13:23:00,
2013-01-09 06:33:00,24.0,16.0,29.80,East,86,13.0,17.0,72,0.00,,,0.00,,2013-01-09 13:33:00,
2013-01-09 06:43:00,24.0,16.0,29.80,East,86,13.0,17.0,72,0.00,,,0.00,,2013-01-09 13:43:00,
2013-01-09 06:53:00,24.0,17.0,29.80,East,84,11.0,16.0,73,0.00,,,0.00,,2013-01-09 13:53:00,
2013-01-09 07:03:00,24.0,17.0,29.80,ENE,74,11.0,16.0,74,0.00,,,0.00,,2013-01-09 14:03:00,
2013-01-09 07:12:00,24.0,17.0,29.80,ENE,74,11.0,16.0,74,0.00,,,0.00,,2013-01-09 14:12:00,
2013-01-09 07:22:00,24.0,18.0,29.79,ENE,77,10.0,14.0,76,0.00,,,0.00,,2013-01-09 14:22:00,
2013-01-09 07:33:00,24.0,18.0,29.79,East,82,9.0,12.0,76,0.00,,,0.00,,2013-01-09 14:33:00,
2013-01-09 07:43:00,24.0,18.0,29.79,East,82,9.0,12.0,76,0.00,,,0.00,,2013-01-09 14:43:00,
2013-01-09 07:53:00,24.0,18.0,29.79,East,82,9.0,12.0,76,0.00,,,0.00,,2013-01-09 14:53:00,
2013-01-09 08:03:00,24.0,18.0,29.80,ENE,72,12.0,14.0,76,0.00,,,0.00,,2013-01-09 15:03:00,
2013-01-09 08:12:00,24.0,18.0,29.80,ENE,72,12.0,14.0,76,0.00,,,0.00,,2013-01-09 15:12:00,
2013-01-09 08:23:00,24.0,18.0,29.81,ENE,75,12.0,14.0,76,0.00,,,0.00,,2013-01-09 15:23:00,
2013-01-09 08:33:00,24.0,18.0,29.80,ENE,71,12.0,15.0,76,0.00,,,0.00,,2013-01-09 15:33:00,
2013-01-09 08:42:00,24.0,18.0,29.80,ENE,71,12.0,15.0,76,0.00,,,0.00,,2013-01-09 15:42:00,
2013-01-09 08:53:00,24.0,18.0,29.81,ENE,76,9.0,15.0,77,0.00,,,0.00,,2013-01-09 15:53:00,
2013-01-09 09:03:00,24.0,18.0,29.80,ENE,69,10.0,13.0,77,0.00,,,0.00,,2013-01-09 16:03:00,
2013-01-09 09:12:00,24.0,18.0,29.80,ENE,69,10.0,13.0,77,0.00,,,0.00,,2013-01-09 16:12:00,
2013-01-09 09:23:00,25.0,19.0,29.80,ENE,78,10.0,13.0,77,0.00,,,0.00,,2013-01-09 16:23:00,
2013-01-09 09:33:00,25.0,19.0,29.80,ENE,76,8.0,12.0,76,0.00,,,0.00,,2013-01-09 16:33:00,
2013-01-09 09:42:00,25.0,19.0,29.80,ENE,76,8.0,12.0,76,0.00,,,0.00,,2013-01-09 16:42:00,
2013-01-09 09:53:00,26.0,20.0,29.80,ENE,71,6.0,12.0,77,0.00,,,0.00,,2013-01-09 16:53:00,
2013-01-09 10:02:00,26.0,20.0,29.80,ENE,63,6.0,10.0,77,0.00,,,0.00,,2013-01-09 17:02:00,
2013-01-09 10:12:00,26.0,20.0,29.80,ENE,63,6.0,10.0,77,0.00,,,0.00,,2013-01-09 17:12:00,
2013-01-09 10:23:00,26.0,20.0,29.80,ENE,58,6.0,12.0,77,0.00,,,0.00,,2013-01-09 17:23:00,
2013-01-09 10:32:00,27.0,21.0,29.80,NE,55,7.0,10.0,77,0.00,,,0.00,,2013-01-09 17:32:00,
2013-01-09 10:43:00,27.0,21.0,29.80,NE,55,7.0,10.0,77,0.00,,,0.00,,2013-01-09 17:43:00,
2013-01-09 10:53:00,27.0,21.0,29.80,ENE,64,6.0,12.0,77,0.00,,,0.00,,2013-01-09 17:53:00,
2013-01-09 11:03:00,28.0,22.0,29.80,ENE,71,6.0,9.0,77,0.00,,,0.00,,2013-01-09 18:03:00,
2013-01-09 11:12:00,28.0,22.0,29.80,ENE,71,6.0,9.0,77,0.00,,,0.00,,2013-01-09 18:12:00,
2013-01-09 11:23:00,29.0,23.0,29.80,East,96,8.0,10.0,77,0.00,,,0.00,,2013-01-09 18:23:00,
2013-01-09 11:33:00,30.0,23.0,29.80,East,89,12.0,14.0,75,0.00,,,0.00,,2013-01-09 18:33:00,
2013-01-09 11:43:00,30.0,23.0,29.80,East,89,12.0,14.0,75,0.00,,,0.00,,2013-01-09 18:43:00,
2013-01-09 11:53:00,31.0,24.0,29.80,East,91,8.0,12.0,75,0.00,,,0.00,,2013-01-09 18:53:00,
2013-01-09 12:03:00,32.0,25.0,29.80,East,79,6.0,10.0,74,0.00,,,0.00,,2013-01-09 19:03:00,
2013-01-09 12:12:00,32.0,25.0,29.80,East,79,6.0,10.0,74,0.00,,,0.00,,2013-01-09 19:12:00,
2013-01-09 12:22:00,33.0,26.0,29.77,East,92,9.0,12.0,74,0.00,,,0.00,,2013-01-09 19:22:00,
2013-01-09 12:33:00,34.0,27.0,29.76,East,86,6.0,9.0,74,0.00,,,0.00,,2013-01-09 19:33:00,
2013-01-09 12:43:00,34.0,27.0,29.76,East,86,6.0,9.0,74,0.00,,,0.00,,2013-01-09 19:43:00,
2013-01-09 12:53:00,35.0,28.0,29.76,ENE,77,6.0,9.0,75,0.00,,,0.00,,2013-01-09 19:53:00,
2013-01-09 13:02:00,36.0,28.0,29.76,ESE,107,6.0,8.0,72,0.00,,,0.00,,2013-01-09 20:02:00,
2013-01-09 13:12:00,36.0,28.0,29.76,ESE,107,6.0,8.0,72,0.00,,,0.00,,2013-01-09 20:12:00,
2013-01-09 13:23:00,40.0,28.0,29.75,ESE,108,3.0,8.0,62,0.00,,,0.00,,2013-01-09 20:23:00,
2013-01-09 13:33:00,41.0,29.0,29.74,East,97,2.0,6.0,62,0.00,,,0.00,,2013-01-09 20:33:00,
2013-01-09 13:42:00,41.0,29.0,29.74,East,97,2.0,6.0,62,0.00,,,0.00,,2013-01-09 20:42:00,
2013-01-09 13:53:00,42.0,29.0,29.73,ESE,102,1.0,3.0,60,0.00,,,0.00,,2013-01-09 20:53:00,
2013-01-09 14:03:00,42.0,29.0,29.73,East,101,0.0,3.0,59,0.00,,,0.00,,2013-01-09 21:03:00,
2013-01-09 14:12:00,42.0,29.0,29.73,East,101,0.0,3.0,59,0.00,,,0.00,,2013-01-09 21:12:00,
2013-01-09 14:22:00,43.0,29.0,29.72,West,270,2.0,6.0,58,0.01,,,0.01,,2013-01-09 21:22:00,
2013-01-09 14:33:00,43.0,29.0,29.72,SSE,164,11.0,17.0,58,0.01,,,0.01,,2013-01-09 21:33:00,
2013-01-09 14:43:00,43.0,29.0,29.72,SSE,164,11.0,17.0,58,0.01,,,0.01,,2013-01-09 21:43:00,
2013-01-09 14:53:00,45.0,29.0,29.73,South,187,9.0,24.0,53,0.01,,,0.01,,2013-01-09 21:53:00,
2013-01-09 15:03:00,44.0,28.0,29.73,South,186,3.0,13.0,54,0.01,,,0.01,,2013-01-09 22:03:00,
2013-01-09 15:12:00,44.0,28.0,29.73,South,186,3.0,13.0,54,0.01,,,0.01,,2013-01-09 22:12:00,
2013-01-09 15:22:00,43.0,28.0,29.72,SSW,203,2.0,7.0,56,0.00,,,0.01,,2013-01-09 22:22:00,
2013-01-09 15:33:00,43.0,28.0,29.72,SSW,209,1.0,6.0,56,0.00,,,0.01,,2013-01-09 22:33:00,
2013-01-09 15:43:00,43.0,28.0,29.72,SSW,209,1.0,6.0,56,0.00,,,0.01,,2013-01-09 22:43:00,
2013-01-09 15:52:00,43.0,29.0,29.71,SSE,168,4.0,10.0,57,0.00,,,0.01,,2013-01-09 22:52:00,
2013-01-09 16:02:00,43.0,29.0,29.71,South,170,3.0,6.0,58,0.00,,,0.01,,2013-01-09 23:02:00,
2013-01-09 16:12:00,43.0,29.0,29.71,South,170,3.0,6.0,58,0.00,,,0.01,,2013-01-09 23:12:00,
2013-01-09 16:22:00,43.0,29.0,29.71,South,170,3.0,6.0,58,0.00,,,0.01,,2013-01-09 23:22:00,
2013-01-09 16:33:00,42.0,28.0,29.70,South,171,5.0,10.0,58,0.00,,,0.01,,2013-01-09 23:33:00,
2013-01-09 16:43:00,42.0,28.0,29.70,South,171,5.0,10.0,58,0.00,,,0.01,,2013-01-09 23:43:00,
2013-01-09 16:53:00,42.0,28.0,29.70,ESE,102,9.0,12.0,58,0.00,,,0.01,,2013-01-09 23:53:00,
2013-01-09 17:03:00,41.0,29.0,29.70,ENE,75,7.0,12.0,62,0.00,,,0.01,,2013-01-10 00:03:00,
2013-01-09 17:12:00,41.0,29.0,29.70,ENE,75,7.0,12.0,62,0.00,,,0.01,,2013-01-10 00:12:00,
2013-01-09 17:22:00,41.0,29.0,29.70,ESE,118,7.0,12.0,63,0.00,,,0.01,,2013-01-10 00:22:00,
2013-01-09 17:32:00,41.0,29.0,29.70,ESE,110,10.0,14.0,63,0.00,,,0.01,,2013-01-10 00:32:00,
2013-01-09 17:42:00,41.0,29.0,29.70,ESE,110,10.0,14.0,63,0.00,,,0.01,,2013-01-10 00:42:00,
2013-01-09 17:53:00,40.0,29.0,29.68,ESE,111,6.0,12.0,64,0.00,,,0.01,,2013-01-10 00:53:00,
2013-01-09 18:02:00,40.0,30.0,29.68,ESE,103,6.0,12.0,66,0.00,,,0.01,,2013-01-10 01:02:00,
2013-01-09 18:12:00,40.0,30.0,29.68,ESE,103,6.0,12.0,66,0.00,,,0.01,,2013-01-10 01:12:00,
2013-01-09 18:22:00,39.0,29.0,29.68,ESE,103,9.0,12.0,68,0.00,,,0.01,,2013-01-10 01:22:00,
2013-01-09 18:32:00,38.0,29.0,29.68,East,86,9.0,12.0,70,0.00,,,0.01,,2013-01-10 01:32:00,
2013-01-09 18:42:00,38.0,29.0,29.68,East,86,9.0,12.0,70,0.00,,,0.01,,2013-01-10 01:42:00,
2013-01-09 18:53:00,38.0,29.0,29.67,East,85,9.0,13.0,71,0.00,,,0.01,,2013-01-10 01:53:00,
2013-01-09 19:02:00,38.0,29.0,29.67,East,90,11.0,13.0,70,0.00,,,0.01,,2013-01-10 02:02:00,
2013-01-09 19:12:00,38.0,29.0,29.67,East,90,11.0,13.0,70,0.00,,,0.01,,2013-01-10 02:12:00,
2013-01-09 19:22:00,38.0,29.0,29.67,East,97,10.0,14.0,70,0.00,,,0.01,,2013-01-10 02:22:00,
2013-01-09 19:32:00,38.0,29.0,29.66,East,96,10.0,13.0,71,0.00,,,0.01,,2013-01-10 02:32:00,
2013-01-09 19:42:00,38.0,29.0,29.66,East,96,10.0,13.0,71,0.00,,,0.01,,2013-01-10 02:42:00,
2013-01-09 19:52:00,38.0,29.0,29.66,East,96,10.0,13.0,71,0.00,,,0.01,,2013-01-10 02:52:00,
2013-01-09 20:02:00,37.0,29.0,29.66,ENE,74,10.0,12.0,73,0.00,,,0.01,,2013-01-10 03:02:00,
2013-01-09 20:12:00,37.0,29.0,29.66,ENE,74,10.0,12.0,73,0.00,,,0.01,,2013-01-10 03:12:00,
2013-01-09 20:22:00,36.0,29.0,29.62,East,82,10.0,12.0,76,0.00,,,0.01,,2013-01-10 03:22:00,
2013-01-09 20:32:00,37.0,29.0,29.62,East,92,9.0,12.0,74,0.00,,,0.01,,2013-01-10 03:32:00,
2013-01-09 20:42:00,37.0,29.0,29.62,East,92,9.0,12.0,74,0.00,,,0.01,,2013-01-10 03:42:00,
2013-01-09 20:52:00,37.0,29.0,29.62,ENE,78,8.0,12.0,74,0.00,,,0.01,,2013-01-10 03:52:00,
2013-01-09 21:02:00,37.0,29.0,29.62,East,88,7.0,12.0,74,0.00,,,0.01,,2013-01-10 04:02:00,
2013-01-09 21:12:00,37.0,29.0,29.62,East,88,7.0,12.0,74,0.00,,,0.01,,2013-01-10 04:12:00,
2013-01-09 21:22:00,37.0,29.0,29.61,East,91,9.0,12.0,73,0.00,,,0.01,,2013-01-10 04:22:00,
2013-01-09 21:32:00,37.0,29.0,29.61,East,79,7.0,10.0,72,0.00,,,0.01,,2013-01-10 04:32:00,
2013-01-09 21:42:00,37.0,29.0,29.61,East,79,7.0,10.0,72,0.00,,,0.01,,2013-01-10 04:42:00,
2013-01-09 21:52:00,37.0,29.0,29.61,East,91,8.0,12.0,74,0.00,,,0.01,,2013-01-10 04:52:00,
2013-01-09 22:03:00,37.0,29.0,29.62,East,80,8.0,12.0,74,0.00,,,0.01,,2013-01-10 05:03:00,
2013-01-09 22:12:00,37.0,29.0,29.62,East,80,8.0,12.0,74,0.00,,,0.01,,2013-01-10 05:12:00,
2013-01-09 22:22:00,36.0,29.0,29.61,East,85,10.0,12.0,76,0.00,,,0.01,,2013-01-10 05:22:00,
2013-01-09 22:33:00,36.0,29.0,29.61,East,84,8.0,12.0,76,0.00,,,0.01,,2013-01-10 05:33:00,
2013-01-09 22:42:00,36.0,29.0,29.61,East,84,8.0,12.0,76,0.00,,,0.01,,2013-01-10 05:42:00,
2013-01-09 22:53:00,34.0,28.0,29.60,ENE,60,8.0,10.0,77,0.00,,,0.01,,2013-01-10 05:53:00,
2013-01-09 23:02:00,33.0,27.0,29.60,ENE,63,5.0,7.0,79,0.00,,,0.01,,2013-01-10 06:02:00,
2013-01-09 23:12:00,33.0,27.0,29.60,ENE,63,5.0,7.0,79,0.00,,,0.01,,2013-01-10 06:12:00,
2013-01-09 23:22:00,33.0,27.0,29.59,NE,46,7.0,12.0,79,0.00,,,0.01,,2013-01-10 06:22:00,
2013-01-09 23:32:00,31.0,26.0,29.58,ENE,61,6.0,10.0,80,0.00,,,0.01,,2013-01-10 06:32:00,
2013-01-09 23:42:00,31.0,26.0,29.58,ENE,61,6.0,10.0,80,0.00,,,0.01,,2013-01-10 06:42:00,
2013-01-09 23:52:00,32.0,27.0,29.58,East,83,7.0,10.0,82,0.00,,,0.01,,2013-01-10 06:52:00,